Location: Lafig�re
(44.4503°N, 4.0357°E)
Time: 15:09:04
(UTC+00:00)

Transit 2A Rocket - Pass Details

Date: 30 January 2021
Orbit: 594 x 908 km, 66.7° (Epoch: 06 March)

Event Time Altitude Azimuth Distance (km) Brightness Sun altitude
Rises 20:29:19 0° 310° (NW) 2,865 8.7 -39.0°
Reaches altitude 10° 20:32:31 10° 285° (WNW) 1,936 7.8 -39.5°
Enters shadow 20:32:33 10° 285° (WNW) 1,929 7.8 -39.5°
Maximum altitude 20:34:47 14° 253° (WSW) 1,673 - -39.9°
Drops below altitude 10° 20:37:02 10° 221° (SW) 1,925 - -40.3°
Sets 20:40:13 0° 196° (SSW) 2,838 - -40.9°
